Preview of NWS' New Version of Forecast
This preview is not operational and should not be used for support decisions.

Regional Weather Roundup (RWR)

Issued by National Weather Service (NWS)

                            
000
ASCA42 TJSJ 211610
RWRPR 
PUERTO RICO/U.S. VIRGIN ISLANDS HOURLY WEATHER ROUNDUP
NATIONAL WEATHER SERVICE SAN JUAN PR
1200 PM AST THU FEB 21 2019

PRZ001>002-007>008-010-211700-
PUERTO RICO
  
CITY           SKY/WX    TMP DP  RH WIND       PRES   REMARKS
SAN JUAN LMM   MOSUNNY   81  66  61 E15       30.14F                  
AGUADILLA      CLOUDY    81 N/A N/A E16       30.15F                  
CEIBA          PTSUNNY   81  68  65 E14       30.16F                  
$$

VIZ001>002-211700-
U.S. VIRGIN ISLANDS
  
CITY           SKY/WX    TMP DP  RH WIND       PRES   REMARKS
CHARLOTTE AMA  CLOUDY    79  70  73 SE20      30.13F                  
CHRISTIANSTED  MOSUNNY   88  63  42 E25G33    30.13F                  
$$

HOURLY WEATHER ROUNDUP FOR THE NEWS MEDIA
  
CITY           SKY/WX    TMP DP  RH WIND       PRES   REMARKS
ORLANDO        FAIR      80  70  71 S9        30.17F                  
NEW YORK       PTSUNNY   43  38  82 W15       29.97R                  
NEWARK         PTSUNNY   40  35  83 SW14      29.97S WCI  32          
CHICAGO        FAIR      28  17  63 W17       30.16R WCI  16          
HARTFORD       CLOUDY    35  35 100 W13       29.85R WCI  26          
BOSTON         CLOUDY    35  31  85 NW8       29.85S WCI  29          
DALLAS         TSTM      48  39  71 E8        30.06R                  
PHILADELPHIA   PTSUNNY   45  38  76 W13       30.04R                  
LOS ANGELES    PTSUNNY   50  35  56 N7        29.64R                  
WASHINGTON DC  FOG       35  33  92 CALM      30.08R VSB 1/4